Tracking 18793 objects as of 24-September-2017
HD Live streaming from Space Station
objects crossing your sky now

COSMOS 2251 DEB

Track COSMOS 2251 DEB now!
10-day predictions


NORAD ID: 37326
Int'l Code: 1993-036BKS
Perigee: 682.9 km
Apogee: 777.4 km
Inclination: 74.0 °
Period: 99.3 minutes
Semi major axis: 7101 km
RCS: 0.0127 m2 (small)
Launch date: June 16, 1993
Source: Commonwealth of Independent States (former USSR) (CIS)
Launch site: PLESETSK MISSILE AND SPACE COMPLEX (PKMTR)

Note: This is SATELLITE DEBRIS
aabbcc
Your satellite tracking list
Your tracking list is empty





NASA's NSSDC Master Catalog

Two Line Element Set (TLE):
1 37326U 93036BKS 17263.65250900  .00000318  00000-0  85721-4 0  9997
2 37326  74.0261 251.6710 0066527  45.9477 314.7135 14.50811547420193
Source of the keplerian elements: AFSPC